Time,TemperatureF,DewpointF,PressureIn,WindDirection,WindDirectionDegrees,WindSpeedMPH,WindSpeedGustMPH,Humidity,HourlyPrecipIn,Conditions,Clouds,dailyrainin,SolarRadiationWatts/m^2,SoftwareType,DateUTC
2013-03-10 00:30:00,35.2,27.7,30.24,SSE,153,4.0,5.0,74,0.00,,,0.00,0,Wunderground v.1.15,2013-03-10 05:30:00,
2013-03-10 00:40:00,35.0,27.5,30.23,SSE,164,5.0,5.0,74,0.00,,,0.00,0,Wunderground v.1.15,2013-03-10 05:40:00,
2013-03-10 00:50:00,34.9,27.5,30.23,SE,138,5.0,7.0,74,0.00,,,0.00,0,Wunderground v.1.15,2013-03-10 05:50:00,
2013-03-10 01:00:00,34.6,27.5,30.23,SSE,156,5.0,5.0,75,0.00,,,0.00,0,Wunderground v.1.15,2013-03-10 06:00:00,
2013-03-10 01:10:00,35.0,27.5,30.23,SSE,148,5.0,6.0,74,0.00,,,0.00,0,Wunderground v.1.15,2013-03-10 06:10:00,
2013-03-10 01:20:00,35.1,27.6,30.22,SSE,148,5.0,5.0,74,0.00,,,0.00,0,Wunderground v.1.15,2013-03-10 06:20:00,
2013-03-10 01:30:00,35.2,27.7,30.22,SSE,160,5.0,5.0,74,0.00,,,0.00,0,Wunderground v.1.15,2013-03-10 06:30:00,
2013-03-10 01:40:00,35.0,27.9,30.21,SE,144,5.0,6.0,75,0.00,,,0.00,0,Wunderground v.1.15,2013-03-10 06:40:00,
2013-03-10 01:50:00,35.0,27.9,30.21,SE,144,5.0,5.0,75,0.00,,,0.00,0,Wunderground v.1.15,2013-03-10 06:50:00,
2013-03-10 03:00:00,35.3,27.8,30.20,SSE,155,5.0,5.0,74,0.00,,,0.00,0,Wunderground v.1.15,2013-03-10 07:00:00,
2013-03-10 03:10:00,35.5,27.7,30.20,SSE,147,5.0,6.0,73,0.00,,,0.00,0,Wunderground v.1.15,2013-03-10 07:10:00,
2013-03-10 03:20:00,35.5,27.7,30.19,SSE,161,4.0,4.0,73,0.00,,,0.00,0,Wunderground v.1.15,2013-03-10 07:20:00,
2013-03-10 03:30:00,35.6,28.1,30.19,SE,135,4.0,8.0,74,0.00,,,0.00,0,Wunderground v.1.15,2013-03-10 07:30:00,
2013-03-10 03:40:00,36.3,28.1,30.19,SSE,153,4.0,4.0,72,0.00,,,0.00,0,Wunderground v.1.15,2013-03-10 07:40:00,
2013-03-10 03:50:00,37.2,28.3,30.18,SSE,148,5.0,5.0,70,0.00,,,0.00,0,Wunderground v.1.15,2013-03-10 07:50:00,
2013-03-10 04:00:00,38.0,28.4,30.18,SSE,165,6.0,6.0,68,0.00,,,0.00,0,Wunderground v.1.15,2013-03-10 08:00:00,
2013-03-10 04:10:00,39.1,28.7,30.17,SSE,157,6.0,6.0,66,0.00,,,0.00,0,Wunderground v.1.15,2013-03-10 08:10:00,
2013-03-10 04:20:00,39.3,28.5,30.17,SSE,150,5.0,5.0,65,0.00,,,0.00,0,Wunderground v.1.15,2013-03-10 08:20:00,
2013-03-10 04:30:00,39.0,28.2,30.17,SE,140,5.0,7.0,65,0.00,,,0.00,0,Wunderground v.1.15,2013-03-10 08:30:00,
2013-03-10 04:40:00,38.5,28.1,30.17,SE,144,6.0,10.0,66,0.00,,,0.00,0,Wunderground v.1.15,2013-03-10 08:40:00,
2013-03-10 04:50:00,38.2,27.8,30.17,SSE,148,7.0,7.0,66,0.00,,,0.00,0,Wunderground v.1.15,2013-03-10 08:50:00,
2013-03-10 05:00:00,38.0,28.0,30.17,SE,140,5.0,6.0,67,0.00,,,0.00,0,Wunderground v.1.15,2013-03-10 09:00:00,
2013-03-10 05:10:00,37.8,27.8,30.17,SSE,148,4.0,5.0,67,0.00,,,0.00,0,Wunderground v.1.15,2013-03-10 09:10:00,
2013-03-10 05:20:00,38.0,28.0,30.16,South,172,6.0,7.0,67,0.00,,,0.00,0,Wunderground v.1.15,2013-03-10 09:20:00,
2013-03-10 05:30:00,38.3,27.9,30.16,South,171,7.0,7.0,66,0.00,,,0.00,0,Wunderground v.1.15,2013-03-10 09:30:00,
2013-03-10 05:40:00,38.2,28.2,30.16,SSE,167,6.0,6.0,67,0.00,,,0.00,0,Wunderground v.1.15,2013-03-10 09:40:00,
2013-03-10 05:50:00,38.3,28.3,30.16,SSE,166,4.0,5.0,67,0.00,,,0.00,0,Wunderground v.1.15,2013-03-10 09:50:00,
2013-03-10 06:00:00,38.3,28.3,30.16,SSE,161,4.0,5.0,67,0.00,,,0.00,0,Wunderground v.1.15,2013-03-10 10:00:00,
2013-03-10 06:10:00,38.2,28.6,30.15,SSE,164,4.0,4.0,68,0.00,,,0.00,0,Wunderground v.1.15,2013-03-10 10:10:00,
2013-03-10 06:20:00,38.5,28.1,30.15,SSE,149,4.0,4.0,66,0.00,,,0.00,0,Wunderground v.1.15,2013-03-10 10:20:00,
2013-03-10 06:30:00,38.6,28.6,30.14,SSE,148,4.0,6.0,67,0.00,,,0.00,0,Wunderground v.1.15,2013-03-10 10:30:00,
2013-03-10 06:40:00,38.9,28.1,30.14,SSE,151,4.0,4.0,65,0.00,,,0.00,0,Wunderground v.1.15,2013-03-10 10:40:00,
2013-03-10 06:50:00,39.0,28.6,30.14,SSE,153,4.0,4.0,66,0.00,,,0.00,0,Wunderground v.1.15,2013-03-10 10:50:00,
2013-03-10 07:00:00,38.9,28.5,30.14,SSE,154,4.0,4.0,66,0.00,,,0.00,0,Wunderground v.1.15,2013-03-10 11:00:00,
2013-03-10 07:10:00,39.1,28.7,30.14,SSE,155,4.0,4.0,66,0.00,,,0.00,0,Wunderground v.1.15,2013-03-10 11:10:00,
2013-03-10 07:20:00,39.3,28.9,30.14,SSE,165,5.0,5.0,66,0.00,,,0.00,0,Wunderground v.1.15,2013-03-10 11:20:00,
2013-03-10 07:30:00,39.2,28.8,30.14,SSE,160,6.0,6.0,66,0.00,,,0.00,0,Wunderground v.1.15,2013-03-10 11:30:00,
2013-03-10 07:40:00,39.2,28.8,30.14,SSE,157,5.0,5.0,66,0.00,,,0.00,5,Wunderground v.1.15,2013-03-10 11:40:00,
2013-03-10 07:50:00,39.6,28.8,30.14,SE,144,6.0,6.0,65,0.00,,,0.00,11,Wunderground v.1.15,2013-03-10 11:50:00,
2013-03-10 08:00:00,39.7,28.9,30.13,SSE,153,5.0,5.0,65,0.00,,,0.00,16,Wunderground v.1.15,2013-03-10 12:00:00,
2013-03-10 08:10:00,40.0,29.2,30.14,SSE,152,5.0,5.0,65,0.00,,,0.00,18,Wunderground v.1.15,2013-03-10 12:10:00,
2013-03-10 08:20:00,40.1,29.3,30.13,SSE,150,4.0,6.0,65,0.00,,,0.00,21,Wunderground v.1.15,2013-03-10 12:20:00,
2013-03-10 08:30:00,40.3,29.1,30.13,SE,141,5.0,6.0,64,0.00,,,0.00,37,Wunderground v.1.15,2013-03-10 12:30:00,
2013-03-10 08:40:00,40.9,29.3,30.13,SSE,153,5.0,5.0,63,0.00,,,0.00,53,Wunderground v.1.15,2013-03-10 12:40:00,
2013-03-10 08:50:00,41.4,29.3,30.12,SE,145,5.0,6.0,62,0.00,,,0.00,81,Wunderground v.1.15,2013-03-10 12:50:00,
2013-03-10 09:00:00,41.6,29.1,30.12,SE,138,5.0,6.0,61,0.00,,,0.00,95,Wunderground v.1.15,2013-03-10 13:00:00,
2013-03-10 09:10:00,41.7,29.2,30.13,SSE,161,4.0,5.0,61,0.00,,,0.00,98,Wunderground v.1.15,2013-03-10 13:10:00,
2013-03-10 09:20:00,42.4,29.5,30.12,SSE,161,5.0,6.0,60,0.00,,,0.00,114,Wunderground v.1.15,2013-03-10 13:20:00,
2013-03-10 09:30:00,43.3,29.5,30.12,SSE,158,5.0,5.0,58,0.00,,,0.00,81,Wunderground v.1.15,2013-03-10 13:30:00,
2013-03-10 09:40:00,43.9,29.6,30.13,SSE,148,3.0,3.0,57,0.00,,,0.00,79,Wunderground v.1.15,2013-03-10 13:40:00,
2013-03-10 09:50:00,44.1,29.8,30.12,SE,143,4.0,5.0,57,0.00,,,0.00,111,Wunderground v.1.15,2013-03-10 13:50:00,
2013-03-10 10:00:00,44.5,30.2,30.11,SSE,149,5.0,7.0,57,0.00,,,0.00,111,Wunderground v.1.15,2013-03-10 14:00:00,
2013-03-10 10:10:00,45.8,30.1,30.12,SE,146,4.0,4.0,54,0.00,,,0.00,146,Wunderground v.1.15,2013-03-10 14:10:00,
2013-03-10 10:20:00,47.2,31.4,30.11,SE,137,5.0,5.0,54,0.00,,,0.00,527,Wunderground v.1.15,2013-03-10 14:20:00,
2013-03-10 10:30:00,48.5,30.7,30.12,SE,129,6.0,7.0,50,0.00,,,0.00,329,Wunderground v.1.15,2013-03-10 14:30:00,
2013-03-10 10:40:00,49.3,30.4,30.11,SE,140,7.0,7.0,48,0.00,,,0.00,288,Wunderground v.1.15,2013-03-10 14:40:00,
2013-03-10 10:50:00,50.0,32.1,30.12,South,176,5.0,5.0,50,0.00,,,0.00,262,Wunderground v.1.15,2013-03-10 14:50:00,
2013-03-10 11:00:00,50.8,30.7,30.12,South,188,8.0,10.0,46,0.00,,,0.00,309,Wunderground v.1.15,2013-03-10 15:00:00,
2013-03-10 11:10:00,51.4,30.2,30.12,South,184,8.0,8.0,44,0.00,,,0.00,380,Wunderground v.1.15,2013-03-10 15:10:00,
2013-03-10 11:20:00,51.8,28.2,30.11,SSE,161,9.0,9.0,40,0.00,,,0.00,301,Wunderground v.1.15,2013-03-10 15:20:00,
2013-03-10 11:30:00,51.8,28.8,30.11,SSE,159,9.0,9.0,41,0.00,,,0.00,243,Wunderground v.1.15,2013-03-10 15:30:00,
2013-03-10 11:40:00,52.1,29.1,30.10,SE,135,9.0,9.0,41,0.00,,,0.00,257,Wunderground v.1.15,2013-03-10 15:40:00,
2013-03-10 11:50:00,52.0,29.6,30.10,South,169,7.0,10.0,42,0.00,,,0.00,223,Wunderground v.1.15,2013-03-10 15:50:00,
2013-03-10 12:00:00,51.9,29.5,30.10,SSE,156,9.0,9.0,42,0.00,,,0.00,295,Wunderground v.1.15,2013-03-10 16:00:00,
2013-03-10 12:10:00,52.7,29.6,30.10,South,169,8.0,8.0,41,0.00,,,0.00,350,Wunderground v.1.15,2013-03-10 16:10:00,
2013-03-10 12:20:00,53.2,30.7,30.10,SSE,168,7.0,7.0,42,0.00,,,0.00,294,Wunderground v.1.15,2013-03-10 16:20:00,
2013-03-10 12:30:00,52.7,29.6,30.09,SSE,158,7.0,7.0,41,0.00,,,0.00,93,Wunderground v.1.15,2013-03-10 16:30:00,
2013-03-10 12:40:00,52.5,29.5,30.08,SSE,156,9.0,9.0,41,0.00,,,0.00,171,Wunderground v.1.15,2013-03-10 16:40:00,
2013-03-10 12:50:00,52.5,30.0,30.08,South,189,7.0,7.0,42,0.00,,,0.00,229,Wunderground v.1.15,2013-03-10 16:50:00,
2013-03-10 13:00:00,53.1,30.0,30.08,SSE,161,8.0,8.0,41,0.00,,,0.00,234,Wunderground v.1.15,2013-03-10 17:00:00,
2013-03-10 13:10:00,53.6,29.8,30.08,SSE,165,8.0,9.0,40,0.00,,,0.00,209,Wunderground v.1.15,2013-03-10 17:10:00,
2013-03-10 13:20:00,53.7,31.1,30.08,SSE,167,8.0,8.0,42,0.00,,,0.00,206,Wunderground v.1.15,2013-03-10 17:20:00,
2013-03-10 13:30:00,53.8,32.4,30.08,SSE,156,8.0,8.0,44,0.00,,,0.00,264,Wunderground v.1.15,2013-03-10 17:30:00,
2013-03-10 13:40:00,54.6,31.9,30.07,SSE,165,8.0,8.0,42,0.00,,,0.00,253,Wunderground v.1.15,2013-03-10 17:40:00,
2013-03-10 13:50:00,54.7,32.0,30.06,South,170,8.0,9.0,42,0.00,,,0.00,221,Wunderground v.1.15,2013-03-10 17:50:00,
2013-03-10 14:00:00,55.3,32.6,30.06,SSE,157,8.0,8.0,42,0.00,,,0.00,272,Wunderground v.1.15,2013-03-10 18:00:00,
2013-03-10 14:10:00,56.2,32.2,30.05,SSE,162,9.0,10.0,40,0.00,,,0.00,279,Wunderground v.1.15,2013-03-10 18:10:00,
2013-03-10 14:20:00,56.3,31.6,30.05,South,172,9.0,9.0,39,0.00,,,0.00,248,Wunderground v.1.15,2013-03-10 18:20:00,
2013-03-10 14:30:00,56.3,31.6,30.05,South,175,8.0,8.0,39,0.00,,,0.00,302,Wunderground v.1.15,2013-03-10 18:30:00,
2013-03-10 14:40:00,56.8,32.7,30.04,SSE,166,8.0,8.0,40,0.00,,,0.00,283,Wunderground v.1.15,2013-03-10 18:40:00,
2013-03-10 14:50:00,57.2,33.7,30.04,SSE,157,7.0,7.0,41,0.00,,,0.00,427,Wunderground v.1.15,2013-03-10 18:50:00,
2013-03-10 15:00:00,58.7,33.8,30.03,South,174,7.0,7.0,39,0.00,,,0.00,870,Wunderground v.1.15,2013-03-10 19:00:00,
2013-03-10 15:10:00,59.1,33.5,30.03,South,188,9.0,11.0,38,0.00,,,0.00,742,Wunderground v.1.15,2013-03-10 19:10:00,
2013-03-10 15:20:00,58.1,32.6,30.03,SSE,158,8.0,8.0,38,0.00,,,0.00,454,Wunderground v.1.15,2013-03-10 19:20:00,
2013-03-10 15:30:00,58.6,34.3,30.02,South,169,10.0,10.0,40,0.00,,,0.00,714,Wunderground v.1.15,2013-03-10 19:30:00,
2013-03-10 15:40:00,59.0,35.3,30.02,SSE,161,9.0,15.0,41,0.00,,,0.00,396,Wunderground v.1.15,2013-03-10 19:40:00,
2013-03-10 15:50:00,59.7,32.7,30.02,SE,128,9.0,9.0,36,0.00,,,0.00,622,Wunderground v.1.15,2013-03-10 19:50:00,
2013-03-10 16:00:00,59.3,33.0,30.00,SSE,162,10.0,10.0,37,0.00,,,0.00,519,Wunderground v.1.15,2013-03-10 20:00:00,
2013-03-10 16:10:00,59.0,32.7,30.00,South,173,11.0,11.0,37,0.00,,,0.00,531,Wunderground v.1.15,2013-03-10 20:10:00,
2013-03-10 16:20:00,59.1,33.5,30.00,SSE,149,9.0,16.0,38,0.00,,,0.00,422,Wunderground v.1.15,2013-03-10 20:20:00,
2013-03-10 16:30:00,59.3,35.0,29.99,SSE,149,9.0,9.0,40,0.00,,,0.00,476,Wunderground v.1.15,2013-03-10 20:30:00,
2013-03-10 16:40:00,58.9,35.8,29.99,SE,134,9.0,9.0,42,0.00,,,0.00,413,Wunderground v.1.15,2013-03-10 20:40:00,
2013-03-10 16:50:00,58.6,33.0,29.99,SSE,159,8.0,8.0,38,0.00,,,0.00,121,Wunderground v.1.15,2013-03-10 20:50:00,
2013-03-10 17:00:00,58.6,34.3,29.99,South,182,8.0,8.0,40,0.00,,,0.00,151,Wunderground v.1.15,2013-03-10 21:00:00,
2013-03-10 17:10:00,58.2,34.0,29.99,South,191,7.0,13.0,40,0.00,,,0.00,114,Wunderground v.1.15,2013-03-10 21:10:00,
2013-03-10 17:20:00,58.6,33.7,29.99,SSE,167,8.0,10.0,39,0.00,,,0.00,113,Wunderground v.1.15,2013-03-10 21:20:00,
2013-03-10 17:30:00,58.8,33.9,29.98,South,173,11.0,11.0,39,0.00,,,0.00,188,Wunderground v.1.15,2013-03-10 21:30:00,
2013-03-10 17:40:00,59.0,32.7,29.98,South,174,11.0,11.0,37,0.00,,,0.00,104,Wunderground v.1.15,2013-03-10 21:40:00,
2013-03-10 17:50:00,58.5,33.0,29.98,SSE,158,10.0,10.0,38,0.00,,,0.00,113,Wunderground v.1.15,2013-03-10 21:50:00,
2013-03-10 18:00:00,58.4,32.9,29.98,South,169,10.0,10.0,38,0.00,,,0.00,109,Wunderground v.1.15,2013-03-10 22:00:00,
2013-03-10 18:10:00,58.1,32.6,29.98,SSE,166,8.0,8.0,38,0.00,,,0.00,86,Wunderground v.1.15,2013-03-10 22:10:00,
2013-03-10 18:20:00,57.8,33.0,29.98,South,173,7.0,7.0,39,0.00,,,0.00,72,Wunderground v.1.15,2013-03-10 22:20:00,
2013-03-10 18:30:00,56.9,33.4,29.98,SSE,149,7.0,7.0,41,0.00,,,0.00,53,Wunderground v.1.15,2013-03-10 22:30:00,
2013-03-10 18:40:00,56.4,33.6,30.00,South,174,6.0,6.0,42,0.00,,,0.00,32,Wunderground v.1.15,2013-03-10 22:40:00,
2013-03-10 18:50:00,55.5,32.8,29.99,SSE,165,5.0,5.0,42,0.00,,,0.00,12,Wunderground v.1.15,2013-03-10 22:50:00,
2013-03-10 19:00:00,55.2,33.1,29.99,South,175,6.0,6.0,43,0.00,,,0.00,5,Wunderground v.1.15,2013-03-10 23:00:00,
2013-03-10 19:10:00,54.6,33.1,29.99,South,176,7.0,8.0,44,0.00,,,0.00,0,Wunderground v.1.15,2013-03-10 23:10:00,
2013-03-10 19:20:00,54.4,32.3,29.99,South,179,6.0,8.0,43,0.00,,,0.00,0,Wunderground v.1.15,2013-03-10 23:20:00,
2013-03-10 20:00:00,53.3,32.5,30.01,SSE,166,6.0,6.0,45,0.00,,,0.00,0,Wunderground v.1.15,2013-03-11 00:00:00,
2013-03-10 20:10:00,52.9,32.1,30.02,SSE,162,6.0,7.0,45,0.00,,,0.00,0,Wunderground v.1.15,2013-03-11 00:10:00,
2013-03-10 20:20:00,52.2,32.6,30.02,South,177,6.0,7.0,47,0.00,,,0.00,0,Wunderground v.1.15,2013-03-11 00:20:00,
2013-03-10 20:30:00,51.9,32.8,30.02,SSE,168,6.0,6.0,48,0.00,,,0.00,0,Wunderground v.1.15,2013-03-11 00:30:00,
2013-03-10 20:40:00,51.6,32.5,30.02,South,174,5.0,6.0,48,0.00,,,0.00,0,Wunderground v.1.15,2013-03-11 00:40:00,
2013-03-10 20:50:00,51.5,32.4,30.02,SSE,154,5.0,5.0,48,0.00,,,0.00,0,Wunderground v.1.15,2013-03-11 00:50:00,
2013-03-10 21:00:00,51.4,31.8,30.02,South,175,4.0,4.0,47,0.00,,,0.00,0,Wunderground v.1.15,2013-03-11 01:00:00,
2013-03-10 21:10:00,51.2,32.2,30.03,South,173,4.0,4.0,48,0.00,,,0.00,0,Wunderground v.1.15,2013-03-11 01:10:00,
2013-03-10 21:20:00,50.8,32.8,30.02,South,181,5.0,5.0,50,0.00,,,0.00,0,Wunderground v.1.15,2013-03-11 01:20:00,
2013-03-10 21:30:00,50.6,32.6,30.02,South,171,5.0,5.0,50,0.00,,,0.00,0,Wunderground v.1.15,2013-03-11 01:30:00,
2013-03-10 21:40:00,50.5,33.0,30.03,South,174,5.0,5.0,51,0.00,,,0.00,0,Wunderground v.1.15,2013-03-11 01:40:00,
2013-03-10 21:50:00,50.7,33.2,30.03,South,173,6.0,8.0,51,0.00,,,0.00,0,Wunderground v.1.15,2013-03-11 01:50:00,
2013-03-10 22:10:00,51.4,33.4,30.03,SSE,166,7.0,7.0,50,0.00,,,0.00,0,Wunderground v.1.15,2013-03-11 02:10:00,
2013-03-10 22:20:00,51.1,33.1,30.03,South,173,6.0,6.0,50,0.00,,,0.00,0,Wunderground v.1.15,2013-03-11 02:20:00,
2013-03-10 22:40:00,50.6,33.1,30.02,South,176,6.0,6.0,51,0.00,,,0.00,0,Wunderground v.1.15,2013-03-11 02:40:00,
2013-03-10 22:50:00,50.1,33.1,30.03,South,170,5.0,5.0,52,0.00,,,0.00,0,Wunderground v.1.15,2013-03-11 02:50:00,
2013-03-10 23:10:00,49.4,32.5,30.01,SSE,157,4.0,5.0,52,0.00,,,0.00,0,Wunderground v.1.15,2013-03-11 03:10:00,
2013-03-10 23:20:00,49.5,32.6,30.00,SSE,158,5.0,6.0,52,0.00,,,0.00,0,Wunderground v.1.15,2013-03-11 03:20:00,
2013-03-10 23:30:00,49.4,32.0,30.00,SE,145,5.0,5.0,51,0.00,,,0.00,0,Wunderground v.1.15,2013-03-11 03:30:00,
2013-03-10 23:40:00,49.6,32.2,30.00,SSE,168,3.0,3.0,51,0.00,,,0.00,0,Wunderground v.1.15,2013-03-11 03:40:00,
2013-03-10 23:50:00,49.6,32.7,30.00,SSE,161,4.0,6.0,52,0.00,,,0.00,0,Wunderground v.1.15,2013-03-11 03:50:00,